Satellite: CP3
Catalog number: 31128
Epoch time:      07304.43395542
Element set:    0169
Inclination:      098.0670 deg
RA of node:       012.2303 deg
Eccentricity:    0.0102063
Arg of perigee:   325.5531 deg
Mean anomaly:     033.9081 deg
Mean motion:   14.51877935 rev/day
Decay rate:       -4.8e-07 rev/day^2
Epoch rev:           02859
Checksum:              281

Satellite: LIBERT
Catalog number: 31129
Epoch time:      07305.59352905
Element set:     481
Inclination:      098.0700 deg
RA of node:       013.3655 deg
Eccentricity:    0.0102144
Arg of perigee:   322.2287 deg
Mean anomaly:     037.1760 deg
Mean motion:   14.51970767 rev/day
Decay rate:       3.36e-06 rev/day^2
Epoch rev:            2874
Checksum:              280

/EX
SB KEPS @ AMSAT  $ORB07305.W
Orbital Elements  07305.WEATHER

HR AMSAT ORBITAL ELEMENTS FOR WEATHER SATELLITES
FROM WA5QGD FORT WORTH,TX November 1, 2007
Send Subscribe/unsubscribe to KEPS at 
http://www.amsat.org/mailman/listinfo/keps
BID: ORB07305.W
TO ALL RADIO AMATEURS BT

Satellite: NOAA-10
Catalog number: 16969
Epoch time:      07304.64858501
Element set:    0872
Inclination:      098.7403 deg
RA of node:       321.8840 deg
Eccentricity:    0.0012889
Arg of perigee:   127.2635 deg
Mean anomaly:     232.9724 deg
Mean motion:   14.27339118 rev/day
Decay rate:        4.9e-07 rev/day^2
Epoch rev:           09869
Checksum:              335

Satellite: NOAA-11
Catalog number: 19531
Epoch time:      07304.83022570
Element set:    0904
Inclination:      098.8087 deg
RA of node:       032.2713 deg
Eccentricity:    0.0011798
Arg of perigee:   005.9146 deg
Mean anomaly:     354.2158 deg
Mean motion:   14.14853359 rev/day
Decay rate:      -2.56e-06 rev/day^2
Epoch rev:           98547
Checksum:              312

Satellite: NOAA-12
Catalog number: 21263
Epoch time:      07304.96267765
Element set:    0412
Inclination:      098.7615 deg
RA of node:       302.0316 deg
Eccentricity:    0.0013347
Arg of perigee:   072.6231 deg
Mean anomaly:     287.6437 deg
Mean motion:   14.25500619 rev/day
Decay rate:       1.28e-06 rev/day^2
Epoch rev:           85573
Checksum:              295

Satellite: MET-3/5
Catalog number: 21655
Epoch time:      07304.91751964
Element set:    0379
Inclination:      082.5522 deg
RA of node:       266.3316 deg
Eccentricity:    0.0012180
Arg of perigee:   223.3486 deg
Mean anomaly:     136.6679 deg
Mean motion:   13.17013504 rev/day
Decay rate:        5.1e-07 rev/day^2
Epoch rev:           77940
Checksum:              300

Satellite: MET-2/21
Catalog number: 22782
Epoch time:      07305.47821663
Element set:     973
Inclination:      082.5446 deg
RA of node:       292.9983 deg
Eccentricity:    0.0021589
Arg of perigee:   207.8859 deg
Mean anomaly:     152.1159 deg
Mean motion:   13.83619923 rev/day
Decay rate:       -2.2e-07 rev/day^2
Epoch rev:           71550
Checksum:              335

Satellite: OKEAN-4
Catalog number: 23317
Epoch time:      07304.72064130
Element set:    0413
Inclination:      082.5386 deg
RA of node:       169.1679 deg
Eccentricity:    0.0022605
Arg of perigee:   158.9541 deg
Mean anomaly:     201.2608 deg
Mean motion:   14.82544873 rev/day
Decay rate:        2.0e-07 rev/day^2
Epoch rev:           70428
Checksum:              283

Satellite: NOAA-14
Catalog number: 23455
Epoch time:      07304.67418842
Element set:    0881
Inclination:      098.9754 deg
RA of node:       011.4875 deg
Eccentricity:    0.0010215
Arg of perigee:   076.9410 deg
Mean anomaly:     283.2911 deg
Mean motion:   14.13729503 rev/day
Decay rate:       2.96e-06 rev/day^2
Epoch rev:           66192
Checksum:              311

Satellite: SICH-1
Catalog number: 23657
Epoch time:      07305.73326537
Element set:     212
Inclination:      082.5254 deg
RA of node:       309.1689 deg
Eccentricity:    0.0024938
Arg of perigee:   147.2721 deg
Mean anomaly:     213.0059 deg
Mean motion:   14.81522855 rev/day
Decay rate:       2.82e-06 rev/day^2
Epoch rev:           65639
Checksum:              304

Satellite: NOAA-15
Catalog number: 25338
Epoch time:      07304.91362071
Element set:    0224
Inclination:      098.5414 deg
RA of node:       297.8113 deg
Eccentricity:    0.0010596
Arg of perigee:   356.1278 deg
Mean anomaly:     003.9813 deg
Mean motion:   14.24669909 rev/day
Decay rate:       -2.7e-07 rev/day^2
Epoch rev:           49215
Checksum:              309

Satellite: RESURS
Catalog number: 25394
Epoch time:      07305.77301324
Element set:     775
Inclination:      098.4207 deg
RA of node:       354.7360 deg
Eccentricity:    0.0001818
Arg of perigee:   118.2140 deg
Mean anomaly:     241.9223 deg
Mean motion:   14.24147956 rev/day
Decay rate:       -1.9e-07 rev/day^2
Epoch rev:           48393
Checksum:              291

Satellite: FENGYUN1
Catalog number: 25730
Epoch time:      07304.97196827
Element set:    0260
Inclination:      098.7037 deg
RA of node:       283.7454 deg
Eccentricity:    0.0020158
Arg of perigee:   093.1531 deg
Mean anomaly:     267.1943 deg
Mean motion:   14.07634048 rev/day
Decay rate:       1.73e-06 rev/day^2
Epoch rev:           43671
Checksum:              304

Satellite: OKEAN-0
Catalog number: 25860
Epoch time:      07304.59185041
Element set:    0200
Inclination:      097.7379 deg
RA of node:       300.5202 deg
Eccentricity:    0.0000878
Arg of perigee:   036.4444 deg
Mean anomaly:     323.6820 deg
Mean motion:   14.73481851 rev/day
Decay rate:        6.6e-07 rev/day^2
Epoch rev:           44558
Checksum:              287

Satellite: NOAA-16
Catalog number: 26536
Epoch time:      07304.90763317
Element set:    0668
Inclination:      099.1354 deg
RA of node:       284.3425 deg
Eccentricity:    0.0010946
Arg of perigee:   145.7844 deg
Mean anomaly:     214.4014 deg
Mean motion:   14.12456512 rev/day
Decay rate:       -6.8e-07 rev/day^2
Epoch rev:           36640
Checksum:              303

Satellite: NOAA-17
Catalog number: 27453
Epoch time:      07304.70077039
Element set:    0663
Inclination:      098.5655 deg
RA of node:       010.6328 deg
Eccentricity:    0.0012515
Arg of perigee:   060.2335 deg
Mean anomaly:     300.0069 deg
Mean motion:   14.23921162 rev/day
Decay rate:       1.31e-06 rev/day^2
Epoch rev:           27814
Checksum:              268

Satellite: NOAA-18
Catalog number: 28654
Epoch time:      07304.67780596
Element set:    0184
Inclination:      098.8423 deg
RA of node:       243.7381 deg
Eccentricity:    0.0013534
Arg of perigee:   241.6467 deg
Mean anomaly:     118.3325 deg
Mean motion:   14.11108091 rev/day
Decay rate:       4.07e-06 rev/day^2
Epoch rev:           12610
Checksum:              297

/EX
SB KEPS @ AMSAT  $ORB07305.M
Orbital Elements  07305.MISC

HR AMSAT ORBITAL ELEMENTS FOR MANNED AND MISCELLANEOUS SATELLITES
FROM WA5QGD FORT WORTH,TX November 1, 2007
Send Subscribe/unsubscribe to KEPS at 
http://www.amsat.org/mailman/listinfo/keps
BID: ORB07305.M
TO ALL RADIO AMATEURS BT

Satellite: HUBBLE
Catalog number: 20580
Epoch time:      07304.58139731
Element set:     994
Inclination:      028.4679 deg
RA of node:       020.6713 deg
Eccentricity:    0.0003663
Arg of perigee:   112.4303 deg
Mean anomaly:     247.6677 deg
Mean motion:   15.00296666 rev/day
Decay rate:       4.00e-06 rev/day^2
Epoch rev:           76046
Checksum:              291

Satellite: UARS
Catalog number: 21701
Epoch time:      07305.89028385
Element set:     206
Inclination:      056.9727 deg
RA of node:       075.8392 deg
Eccentricity:    0.0095627
Arg of perigee:   098.3193 deg
Mean anomaly:     262.8720 deg
Mean motion:   15.49499492 rev/day
Decay rate:      6.278e-05 rev/day^2
Epoch rev:           88708
Checksum:              354

Satellite: PO-34
Catalog number: 25520
Epoch time:      07304.28774993
Element set:    0857
Inclination:      028.4605 deg
RA of node:       277.8026 deg
Eccentricity:    0.0005408
Arg of perigee:   295.6733 deg
Mean anomaly:     064.3310 deg
Mean motion:   15.17073251 rev/day
Decay rate:       4.98e-06 rev/day^2
Epoch rev:           49821
Checksum:              317

Satellite: ISS
Catalog number: 25544
Epoch time:      07305.97281407
Element set:     275
Inclination:      051.6405 deg
RA of node:       113.4122 deg
Eccentricity:    0.0003483
Arg of perigee:   161.2327 deg
Mean anomaly:     285.2279 deg
Mean motion:   15.75858188 rev/day
Decay rate:     7.0518e-04 rev/day^2
Epoch rev:           51251
Checksum:              295

Satellite: OO-38
Catalog number: 26063
Epoch time:      07305.58812906
Element set:      49
Inclination:      100.2236 deg
RA of node:       333.5827 deg
Eccentricity:    0.0037150
Arg of perigee:   132.8435 deg
Mean anomaly:     227.5881 deg
Mean motion:   14.35818707 rev/day
Decay rate:       -7.0e-08 rev/day^2
Epoch rev:           40676
Checksum:              302

Satellite: UWE-1
Catalog number: 28892
Epoch time:      07304.70620781
Element set:    0889
Inclination:      098.1153 deg
RA of node:       198.5137 deg
Eccentricity:    0.0018085
Arg of perigee:   048.9225 deg
Mean anomaly:     311.3548 deg
Mean motion:   14.59555632 rev/day
Decay rate:       1.56e-06 rev/day^2
Epoch rev:           10712
Checksum:              316

Satellite: CO-58
Catalog number: 28895
Epoch time:      07304.74925301
Element set:    0865
Inclination:      098.1163 deg
RA of node:       198.8198 deg
Eccentricity:    0.0018765
Arg of perigee:   048.7776 deg
Mean anomaly:     311.5064 deg
Mean motion:   14.59599114 rev/day
Decay rate:       2.22e-06 rev/day^2
Epoch rev:           10701
Checksum:              340

